Zurück zum Katalog

NOAA 16 DEB

AktivPO
NORAD 42396·DEBRIS·🇺🇸 United States

Gestartet Sep 21, 2000 von Vandenberg Space Force Base

Loading…

Nächste Überflüge (nächste 24 Stunden)

TLE

AktuellSource: Space-Track

Epoche: Sep 12, 2026, 21:43 UTC

1 42396U 00055SQ  26255.90511384  .00006994  00000-0  14111-2 0  9993
2 42396  98.8059  55.8083 0025468 104.9174 255.4848 14.61577865550124

Verfolge NOAA 16 DEB in Echtzeit mit AllMySat

Download on the App Store